Location: Unspecified
(38.9820°N, 94.4650°W)
Time: 01:38:14
(UTC-05:00)

Okean 3 - Visible Passes

Search period start: 30 June 2016 00:00
Search period end: 10 July 2016 00:00
Orbit: 579 x 603 km, 82.5° (Epoch: 29 June)

Date Brightness Start Highest point End Pass type
(mag) Time Alt. Az. Time Alt. Az. Time Alt. Az.
30 Jun 4.3 01:33:44 10° N 01:37:03 49° NNE 01:37:03 49° NNE visible
01 Jul 4.3 01:42:12 10° N 01:45:23 48° NNW 01:45:23 48° NNW visible
02 Jul 5.9 00:15:28 10° NE 00:17:11 13° ENE 00:17:11 13° ENE visible
02 Jul 4.7 01:50:49 10° NNW 01:53:45 37° NW 01:53:45 37° NW visible
03 Jul 5.6 00:23:00 10° NNE 00:25:33 19° ENE 00:25:33 19° ENE visible
03 Jul 5.1 01:59:34 10° NNW 02:02:06 26° WNW 02:02:06 26° WNW visible
04 Jul 5.1 00:30:58 10° NNE 00:33:56 26° ENE 00:33:56 26° ENE visible
04 Jul 5.6 02:08:32 10° NW 02:10:29 19° WNW 02:10:29 19° WNW visible
05 Jul 4.7 00:39:10 10° N 00:42:19 36° NE 00:42:19 36° NE visible
05 Jul 6.0 02:17:52 10° NW 02:18:53 13° WNW 02:18:53 13° WNW visible
06 Jul 4.4 00:47:31 10° N 00:50:43 46° NNE 00:50:43 46° NNE visible
07 Jul 4.4 00:56:00 10° N 00:59:08 46° NNW 00:59:08 46° NNW visible
07 Jul 5.8 23:29:15 10° NE 23:30:59 13° ENE 23:30:59 13° ENE visible
08 Jul 4.8 01:04:37 10° NNW 01:07:33 37° NW 01:07:33 37° NW visible
08 Jul 5.4 23:36:47 10° NNE 23:39:25 19° ENE 23:39:25 19° ENE visible
09 Jul 5.2 01:13:22 10° NNW 01:15:59 27° WNW 01:15:59 27° WNW visible
09 Jul 5.0 23:44:46 10° NNE 23:47:52 27° ENE 23:47:52 27° ENE visible
